Time,TemperatureF,DewpointF,PressureIn,WindDirection,WindDirectionDegrees,WindSpeedMPH,WindSpeedGustMPH,Humidity,HourlyPrecipIn,Conditions,Clouds,dailyrainin,SoftwareType,DateUTC
2013-08-26 00:03:00,79.8,70.8,30.11,South,186,4.4,7.3,73,0.00,,,-99.99,Meteorologica,2013-08-26 05:03:00,
2013-08-26 00:08:00,79.5,70.6,30.11,South,179,1.3,7.6,73,0.00,,,-99.99,Meteorologica,2013-08-26 05:08:00,
2013-08-26 00:13:00,79.4,70.6,30.11,South,170,4.4,8.2,74,0.00,,,-99.99,Meteorologica,2013-08-26 05:13:00,
2013-08-26 00:18:00,79.3,70.6,30.11,ESE,118,2.1,7.9,74,0.00,,,-99.99,Meteorologica,2013-08-26 05:18:00,
2013-08-26 00:23:00,79.2,70.6,30.11,SSE,164,3.2,5.5,74,0.00,,,-99.99,Meteorologica,2013-08-26 05:23:00,
2013-08-26 00:28:00,79.0,70.5,30.11,SE,145,3.9,9.1,74,0.00,,,-99.99,Meteorologica,2013-08-26 05:28:00,
2013-08-26 00:34:00,78.9,70.6,30.11,SE,136,3.0,5.6,75,0.00,,,-99.99,Meteorologica,2013-08-26 05:34:00,
2013-08-26 00:39:00,78.9,70.6,30.11,SSW,208,3.1,4.8,75,0.00,,,-99.99,Meteorologica,2013-08-26 05:39:00,
2013-08-26 00:44:00,78.8,70.6,30.11,SSW,199,3.0,5.6,75,0.00,,,-99.99,Meteorologica,2013-08-26 05:44:00,
2013-08-26 00:49:00,78.5,70.4,30.11,South,177,3.6,4.7,75,0.00,,,-99.99,Meteorologica,2013-08-26 05:49:00,
2013-08-26 00:54:00,78.5,70.4,30.11,South,179,0.0,0.0,75,0.00,,,-99.99,Meteorologica,2013-08-26 05:54:00,
2013-08-26 00:59:00,78.7,70.7,30.11,SSW,205,2.1,3.4,76,0.00,,,-99.99,Meteorologica,2013-08-26 05:59:00,
2013-08-26 01:04:00,78.3,70.4,30.11,SSE,163,2.8,4.7,76,0.00,,,-99.99,Meteorologica,2013-08-26 06:04:00,
2013-08-26 01:09:00,78.1,70.4,30.11,SW,216,4.4,5.4,77,0.00,,,-99.99,Meteorologica,2013-08-26 06:09:00,
2013-08-26 01:14:00,78.1,70.5,30.11,SSW,210,4.7,7.2,77,0.00,,,-99.99,Meteorologica,2013-08-26 06:14:00,
2013-08-26 01:19:00,78.1,70.5,30.10,South,182,4.0,5.8,77,0.00,,,-99.99,Meteorologica,2013-08-26 06:19:00,
2013-08-26 01:24:00,77.8,70.4,30.11,SSW,199,1.0,3.2,77,0.00,,,-99.99,Meteorologica,2013-08-26 06:24:00,
2013-08-26 01:29:00,77.8,70.5,30.11,SSW,194,1.6,5.5,78,0.00,,,-99.99,Meteorologica,2013-08-26 06:29:00,
2013-08-26 01:34:00,77.7,70.6,30.11,SE,139,0.0,0.0,78,0.00,,,-99.99,Meteorologica,2013-08-26 06:34:00,
2013-08-26 01:39:00,77.4,70.4,30.11,SE,139,0.0,0.0,78,0.00,,,-99.99,Meteorologica,2013-08-26 06:39:00,
2013-08-26 01:44:00,77.5,70.6,30.10,SSE,152,1.2,3.2,79,0.00,,,-99.99,Meteorologica,2013-08-26 06:44:00,
2013-08-26 01:49:00,77.2,70.4,30.11,SSE,150,0.5,3.3,79,0.00,,,-99.99,Meteorologica,2013-08-26 06:49:00,
2013-08-26 01:54:00,77.0,70.5,30.11,SSE,166,0.9,0.0,79,0.00,,,-99.99,Meteorologica,2013-08-26 06:54:00,
2013-08-26 01:59:00,77.0,70.4,30.11,SSE,166,0.0,0.0,79,0.00,,,-99.99,Meteorologica,2013-08-26 06:59:00,
2013-08-26 02:04:00,77.0,70.4,30.11,ESE,115,1.5,3.5,79,0.00,,,-99.99,Meteorologica,2013-08-26 07:04:00,
2013-08-26 02:09:00,76.9,70.4,30.10,SSW,213,0.0,0.0,80,0.00,,,-99.99,Meteorologica,2013-08-26 07:09:00,
2013-08-26 02:14:00,76.8,70.4,30.11,SSW,194,1.6,4.7,80,0.00,,,-99.99,Meteorologica,2013-08-26 07:14:00,
2013-08-26 02:19:00,76.9,70.5,30.11,SSE,159,3.2,4.8,80,0.00,,,-99.99,Meteorologica,2013-08-26 07:19:00,
2013-08-26 02:24:00,76.8,70.5,30.11,SSE,162,0.0,0.0,80,0.00,,,-99.99,Meteorologica,2013-08-26 07:24:00,
2013-08-26 02:29:00,76.5,70.2,30.10,SSE,157,3.1,4.1,80,0.00,,,-99.99,Meteorologica,2013-08-26 07:29:00,
2013-08-26 02:34:00,76.7,70.5,30.10,SSE,159,0.0,0.0,80,0.00,,,-99.99,Meteorologica,2013-08-26 07:34:00,
2013-08-26 02:39:00,76.7,70.5,30.11,SE,132,1.5,4.5,81,0.00,,,-99.99,Meteorologica,2013-08-26 07:39:00,
2013-08-26 02:44:00,76.7,70.5,30.10,South,184,0.0,0.0,81,0.00,,,-99.99,Meteorologica,2013-08-26 07:44:00,
2013-08-26 02:49:00,76.7,70.6,30.10,South,190,1.7,3.3,81,0.00,,,-99.99,Meteorologica,2013-08-26 07:49:00,
2013-08-26 02:54:00,76.6,70.5,30.10,SE,138,0.0,0.0,81,0.00,,,-99.99,Meteorologica,2013-08-26 07:54:00,
2013-08-26 02:59:00,76.3,70.3,30.10,SE,139,0.0,0.0,81,0.00,,,-99.99,Meteorologica,2013-08-26 07:59:00,
2013-08-26 03:04:00,76.4,70.4,30.11,South,173,1.7,3.1,81,0.00,,,-99.99,Meteorologica,2013-08-26 08:04:00,
2013-08-26 03:09:00,76.3,70.3,30.10,SSE,165,3.5,4.5,81,0.00,,,-99.99,Meteorologica,2013-08-26 08:09:00,
2013-08-26 03:14:00,76.2,70.3,30.10,SE,142,0.1,0.0,81,0.00,,,-99.99,Meteorologica,2013-08-26 08:14:00,
2013-08-26 03:19:00,76.3,70.4,30.10,SE,132,1.7,3.1,81,0.00,,,-99.99,Meteorologica,2013-08-26 08:19:00,
2013-08-26 03:24:00,76.2,70.4,30.10,WSW,241,5.7,6.4,82,0.00,,,-99.99,Meteorologica,2013-08-26 08:24:00,
2013-08-26 03:29:00,76.1,70.3,30.10,SSW,211,3.5,6.8,82,0.00,,,-99.99,Meteorologica,2013-08-26 08:29:00,
2013-08-26 03:34:00,76.4,70.6,30.10,South,187,1.0,3.2,82,0.00,,,-99.99,Meteorologica,2013-08-26 08:34:00,
2013-08-26 03:39:00,76.2,70.5,30.10,SW,214,4.6,6.9,82,0.00,,,-99.99,Meteorologica,2013-08-26 08:39:00,
2013-08-26 03:44:00,76.0,70.3,30.10,South,172,1.4,3.2,82,0.00,,,-99.99,Meteorologica,2013-08-26 08:44:00,
2013-08-26 03:49:00,76.0,70.4,30.10,South,184,2.9,6.8,82,0.00,,,-99.99,Meteorologica,2013-08-26 08:49:00,
2013-08-26 03:54:00,75.9,70.4,30.11,South,169,2.1,3.3,82,0.00,,,-99.99,Meteorologica,2013-08-26 08:54:00,
2013-08-26 03:59:00,75.9,70.5,30.10,SW,220,2.4,6.1,83,0.00,,,-99.99,Meteorologica,2013-08-26 08:59:00,
2013-08-26 04:04:00,75.6,70.3,30.10,SSE,152,3.9,5.1,83,0.00,,,-99.99,Meteorologica,2013-08-26 09:04:00,
2013-08-26 04:09:00,75.7,70.5,30.10,SSW,209,4.8,6.4,83,0.00,,,-99.99,Meteorologica,2013-08-26 09:09:00,
2013-08-26 04:14:00,75.7,70.5,30.10,SSW,205,3.6,5.8,83,0.00,,,-99.99,Meteorologica,2013-08-26 09:14:00,
2013-08-26 04:19:00,75.4,70.3,30.10,South,186,3.8,6.2,84,0.00,,,-99.99,Meteorologica,2013-08-26 09:19:00,
2013-08-26 04:24:00,75.4,70.3,30.10,South,172,0.6,0.0,84,0.00,,,-99.99,Meteorologica,2013-08-26 09:24:00,
2013-08-26 04:29:00,75.4,70.4,30.10,SSE,150,3.1,5.5,84,0.00,,,-99.99,Meteorologica,2013-08-26 09:29:00,
2013-08-26 04:34:00,75.2,70.3,30.10,South,190,2.9,4.5,84,0.00,,,-99.99,Meteorologica,2013-08-26 09:34:00,
2013-08-26 04:40:00,75.0,70.1,30.10,SSW,204,1.9,4.3,84,0.00,,,-99.99,Meteorologica,2013-08-26 09:40:00,
2013-08-26 04:45:00,75.0,70.1,30.10,South,179,4.1,5.5,84,0.00,,,-99.99,Meteorologica,2013-08-26 09:45:00,
2013-08-26 04:50:00,75.2,70.1,30.10,South,169,1.7,4.5,84,0.00,,,-99.99,Meteorologica,2013-08-26 09:50:00,
2013-08-26 04:55:00,74.9,70.0,30.10,South,181,3.0,5.3,84,0.00,,,-99.99,Meteorologica,2013-08-26 09:55:00,
2013-08-26 05:00:00,75.0,70.1,30.10,South,183,3.8,6.3,84,0.00,,,-99.99,Meteorologica,2013-08-26 10:00:00,
2013-08-26 05:05:00,75.1,70.2,30.10,SE,141,1.6,4.4,84,0.00,,,-99.99,Meteorologica,2013-08-26 10:05:00,
2013-08-26 05:10:00,75.0,70.2,30.11,South,175,0.1,5.3,84,0.00,,,-99.99,Meteorologica,2013-08-26 10:10:00,
2013-08-26 05:15:00,74.9,70.1,30.10,South,175,0.0,0.0,84,0.00,,,-99.99,Meteorologica,2013-08-26 10:15:00,
2013-08-26 05:20:00,74.9,70.1,30.10,South,175,0.0,0.0,85,0.00,,,-99.99,Meteorologica,2013-08-26 10:20:00,
2013-08-26 05:25:00,74.7,70.1,30.10,South,175,0.0,0.0,85,0.00,,,-99.99,Meteorologica,2013-08-26 10:25:00,
2013-08-26 05:30:00,74.6,70.0,30.10,SSW,197,0.3,4.2,85,0.00,,,-99.99,Meteorologica,2013-08-26 10:30:00,
2013-08-26 05:35:00,74.6,70.0,30.10,SW,214,0.0,0.0,85,0.00,,,-99.99,Meteorologica,2013-08-26 10:35:00,
2013-08-26 05:40:00,74.7,70.1,30.10,South,172,0.9,3.1,85,0.00,,,-99.99,Meteorologica,2013-08-26 10:40:00,
2013-08-26 05:45:00,74.4,69.9,30.11,South,172,0.0,0.0,85,0.00,,,-99.99,Meteorologica,2013-08-26 10:45:00,
2013-08-26 05:50:00,74.2,69.7,30.11,SE,143,0.0,0.0,85,0.00,,,-99.99,Meteorologica,2013-08-26 10:50:00,
2013-08-26 05:55:00,74.2,69.8,30.11,SE,143,0.0,0.0,86,0.00,,,-99.99,Meteorologica,2013-08-26 10:55:00,
2013-08-26 06:00:00,74.1,69.7,30.11,SE,143,0.0,0.0,86,0.00,,,-99.99,Meteorologica,2013-08-26 11:00:00,
2013-08-26 06:05:00,74.1,69.7,30.10,SE,143,0.0,0.0,86,0.00,,,-99.99,Meteorologica,2013-08-26 11:05:00,
2013-08-26 06:10:00,74.3,69.9,30.11,SE,145,0.0,0.0,86,0.00,,,-99.99,Meteorologica,2013-08-26 11:10:00,
2013-08-26 06:15:00,74.2,69.8,30.11,SSW,193,0.7,3.3,86,0.00,,,-99.99,Meteorologica,2013-08-26 11:15:00,
2013-08-26 06:20:00,74.3,69.9,30.11,SSW,193,0.0,0.0,86,0.00,,,-99.99,Meteorologica,2013-08-26 11:20:00,
2013-08-26 06:25:00,74.3,69.9,30.11,SSW,193,0.0,0.0,86,0.00,,,-99.99,Meteorologica,2013-08-26 11:25:00,
2013-08-26 06:30:00,74.3,70.0,30.11,SSW,193,0.0,0.0,86,0.00,,,-99.99,Meteorologica,2013-08-26 11:30:00,
2013-08-26 06:35:00,74.1,69.9,30.11,SSW,193,0.0,0.0,86,0.00,,,-99.99,Meteorologica,2013-08-26 11:35:00,
2013-08-26 06:40:00,73.8,69.7,30.11,SSW,198,2.0,5.4,86,0.00,,,-99.99,Meteorologica,2013-08-26 11:40:00,
2013-08-26 06:45:00,73.8,69.7,30.11,SSW,211,0.0,0.0,87,0.00,,,-99.99,Meteorologica,2013-08-26 11:45:00,
2013-08-26 06:50:00,73.7,69.7,30.11,SSW,211,0.0,0.0,87,0.00,,,-99.99,Meteorologica,2013-08-26 11:50:00,
2013-08-26 06:55:00,73.8,69.8,30.11,SE,134,0.9,3.4,87,0.00,,,-99.99,Meteorologica,2013-08-26 11:55:00,
2013-08-26 07:00:00,73.7,69.7,30.11,SSE,158,0.0,0.0,87,0.00,,,-99.99,Meteorologica,2013-08-26 12:00:00,
2013-08-26 07:05:00,73.5,69.5,30.11,SSE,152,0.3,3.1,87,0.00,,,-99.99,Meteorologica,2013-08-26 12:05:00,
2013-08-26 07:10:00,73.6,69.7,30.12,SE,142,0.0,2.5,87,0.00,,,-99.99,Meteorologica,2013-08-26 12:10:00,
2013-08-26 07:15:00,73.5,69.7,30.12,SSW,209,2.1,6.1,88,0.00,,,-99.99,Meteorologica,2013-08-26 12:15:00,
2013-08-26 07:20:00,73.6,69.8,30.12,South,191,0.0,0.0,87,0.00,,,-99.99,Meteorologica,2013-08-26 12:20:00,
2013-08-26 07:25:00,73.7,69.9,30.11,South,191,0.0,0.0,87,0.00,,,-99.99,Meteorologica,2013-08-26 12:25:00,
2013-08-26 07:30:00,73.9,70.1,30.11,South,191,0.0,0.0,87,0.00,,,-99.99,Meteorologica,2013-08-26 12:30:00,
2013-08-26 07:35:00,73.8,69.9,30.11,SSW,199,0.0,4.6,87,0.00,,,-99.99,Meteorologica,2013-08-26 12:35:00,
2013-08-26 07:40:00,74.1,70.1,30.11,SSW,200,0.0,0.0,87,0.00,,,-99.99,Meteorologica,2013-08-26 12:40:00,
2013-08-26 07:45:00,74.4,70.2,30.11,SSW,206,2.0,4.4,86,0.00,,,-99.99,Meteorologica,2013-08-26 12:45:00,
2013-08-26 07:50:00,74.6,70.3,30.11,South,172,4.0,5.7,86,0.00,,,-99.99,Meteorologica,2013-08-26 12:50:00,
2013-08-26 07:55:00,74.9,70.5,30.11,South,180,3.9,7.5,86,0.00,,,-99.99,Meteorologica,2013-08-26 12:55:00,
2013-08-26 08:00:00,75.2,70.6,30.11,South,173,4.7,6.8,85,0.00,,,-99.99,Meteorologica,2013-08-26 13:00:00,
2013-08-26 08:05:00,75.4,70.6,30.11,SSW,208,6.1,8.1,85,0.00,,,-99.99,Meteorologica,2013-08-26 13:05:00,
2013-08-26 08:10:00,75.8,70.9,30.11,South,183,2.3,5.6,84,0.00,,,-99.99,Meteorologica,2013-08-26 13:10:00,
2013-08-26 08:15:00,76.0,70.9,30.11,SSW,194,4.4,6.9,84,0.00,,,-99.99,Meteorologica,2013-08-26 13:15:00,
2013-08-26 08:20:00,76.3,71.0,30.11,SSW,196,3.6,8.8,83,0.00,,,-99.99,Meteorologica,2013-08-26 13:20:00,
2013-08-26 08:25:00,76.9,71.3,30.11,SSW,200,1.7,6.4,82,0.00,,,-99.99,Meteorologica,2013-08-26 13:25:00,
2013-08-26 08:30:00,77.2,71.3,30.11,SSW,196,5.9,8.8,81,0.00,,,-99.99,Meteorologica,2013-08-26 13:30:00,
2013-08-26 08:35:00,77.8,71.6,30.11,SSW,211,4.4,9.7,81,0.00,,,-99.99,Meteorologica,2013-08-26 13:35:00,
2013-08-26 08:40:00,78.0,71.4,30.11,SSW,207,5.4,7.1,79,0.00,,,-99.99,Meteorologica,2013-08-26 13:40:00,
2013-08-26 08:45:00,78.4,71.7,30.11,South,172,5.4,10.5,79,0.00,,,-99.99,Meteorologica,2013-08-26 13:45:00,
2013-08-26 08:50:00,78.8,71.8,30.11,South,182,4.4,6.9,78,0.00,,,-99.99,Meteorologica,2013-08-26 13:50:00,
2013-08-26 08:55:00,79.0,71.5,30.11,SW,216,8.3,12.4,77,0.00,,,-99.99,Meteorologica,2013-08-26 13:55:00,
2013-08-26 09:00:00,79.2,71.6,30.11,SSE,156,6.6,10.2,77,0.00,,,-99.99,Meteorologica,2013-08-26 14:00:00,
2013-08-26 09:05:00,79.8,71.8,30.10,SW,231,2.4,8.6,76,0.00,,,-99.99,Meteorologica,2013-08-26 14:05:00,
2013-08-26 09:10:00,80.1,71.7,30.11,SW,214,5.8,8.6,75,0.00,,,-99.99,Meteorologica,2013-08-26 14:10:00,
2013-08-26 09:15:00,80.5,71.9,30.10,SSW,206,3.2,10.1,74,0.00,,,-99.99,Meteorologica,2013-08-26 14:15:00,
2013-08-26 09:20:00,80.9,72.0,30.11,SSW,208,6.7,9.2,74,0.00,,,-99.99,Meteorologica,2013-08-26 14:20:00,
2013-08-26 09:25:00,81.4,72.1,30.11,SSW,200,6.0,8.1,72,0.00,,,-99.99,Meteorologica,2013-08-26 14:25:00,
2013-08-26 09:30:00,81.8,71.7,30.10,West,265,4.7,7.6,71,0.00,,,-99.99,Meteorologica,2013-08-26 14:30:00,
2013-08-26 09:35:00,82.4,71.9,30.10,SSW,201,5.2,9.4,69,0.00,,,-99.99,Meteorologica,2013-08-26 14:35:00,
2013-08-26 09:40:00,82.8,71.1,30.10,SSW,204,6.7,14.4,66,0.00,,,-99.99,Meteorologica,2013-08-26 14:40:00,
2013-08-26 09:45:00,83.3,71.8,30.11,WNW,283,4.5,8.7,67,0.00,,,-99.99,Meteorologica,2013-08-26 14:45:00,
2013-08-26 09:50:00,83.9,71.7,30.10,SW,216,6.3,10.8,66,0.00,,,-99.99,Meteorologica,2013-08-26 14:50:00,
2013-08-26 09:55:00,84.3,71.6,30.10,SW,217,5.8,8.7,65,0.00,,,-99.99,Meteorologica,2013-08-26 14:55:00,
2013-08-26 10:00:00,84.3,70.9,30.09,SSW,202,8.1,15.4,63,0.00,,,-99.99,Meteorologica,2013-08-26 15:00:00,
2013-08-26 10:05:00,84.8,70.7,30.10,SW,216,6.4,10.0,62,0.00,,,-99.99,Meteorologica,2013-08-26 15:05:00,
2013-08-26 10:10:00,85.4,71.6,30.09,SW,216,4.9,8.6,62,0.00,,,-99.99,Meteorologica,2013-08-26 15:10:00,
2013-08-26 10:15:00,85.9,71.5,30.09,NW,317,4.0,8.2,61,0.00,,,-99.99,Meteorologica,2013-08-26 15:15:00,
2013-08-26 10:20:00,86.2,71.3,30.10,South,190,5.1,10.4,60,0.00,,,-99.99,Meteorologica,2013-08-26 15:20:00,
2013-08-26 10:25:00,86.5,71.4,30.09,SSE,163,2.4,6.1,60,0.00,,,-99.99,Meteorologica,2013-08-26 15:25:00,
2013-08-26 10:30:00,86.7,70.7,30.09,South,180,7.3,17.9,58,0.00,,,-99.99,Meteorologica,2013-08-26 15:30:00,
2013-08-26 10:35:00,86.8,70.8,30.09,SSW,206,6.7,16.7,57,0.00,,,-99.99,Meteorologica,2013-08-26 15:35:00,
2013-08-26 10:40:00,87.0,70.3,30.09,SSW,199,7.2,14.3,57,0.00,,,-99.99,Meteorologica,2013-08-26 15:40:00,
2013-08-26 10:45:00,87.3,71.5,30.10,SSW,196,5.5,12.6,59,0.00,,,-99.99,Meteorologica,2013-08-26 15:45:00,
2013-08-26 10:50:00,87.6,71.0,30.10,SW,223,4.0,11.6,57,0.00,,,-99.99,Meteorologica,2013-08-26 15:50:00,
2013-08-26 10:55:00,88.0,71.2,30.09,West,276,5.8,12.7,56,0.00,,,-99.99,Meteorologica,2013-08-26 15:55:00,
2013-08-26 11:00:00,88.4,71.7,30.09,SSW,212,2.9,10.8,57,0.00,,,-99.99,Meteorologica,2013-08-26 16:00:00,
2013-08-26 11:05:00,88.5,70.7,30.09,SSW,193,0.5,3.2,55,0.00,,,-99.99,Meteorologica,2013-08-26 16:05:00,
2013-08-26 11:10:00,88.9,71.2,30.09,SW,214,4.1,7.2,55,0.00,,,-99.99,Meteorologica,2013-08-26 16:10:00,
2013-08-26 11:15:00,89.2,71.9,30.09,WNW,283,3.3,7.5,56,0.00,,,-99.99,Meteorologica,2013-08-26 16:15:00,
2013-08-26 11:20:00,89.4,71.4,30.09,South,189,5.9,9.8,55,0.00,,,-99.99,Meteorologica,2013-08-26 16:20:00,
2013-08-26 11:25:00,88.9,71.0,30.09,South,191,6.5,9.9,55,0.00,,,-99.99,Meteorologica,2013-08-26 16:25:00,
2013-08-26 11:30:00,89.0,70.6,30.09,SSW,202,6.9,12.5,54,0.00,,,-99.99,Meteorologica,2013-08-26 16:30:00,
2013-08-26 11:35:00,89.6,71.7,30.09,SSW,194,6.7,12.6,54,0.00,,,-99.99,Meteorologica,2013-08-26 16:35:00,
2013-08-26 11:40:00,90.0,71.3,30.09,WSW,252,5.2,11.5,53,0.00,,,-99.99,Meteorologica,2013-08-26 16:40:00,
2013-08-26 11:45:00,90.0,71.5,30.09,SW,216,2.9,9.9,53,0.00,,,-99.99,Meteorologica,2013-08-26 16:45:00,
2013-08-26 11:50:00,90.1,71.2,30.09,WSW,244,3.6,11.5,53,0.00,,,-99.99,Meteorologica,2013-08-26 16:50:00,
2013-08-26 11:55:00,90.4,71.5,30.09,SSW,194,7.7,13.0,53,0.00,,,-99.99,Meteorologica,2013-08-26 16:55:00,
2013-08-26 12:00:00,90.4,70.9,30.08,WSW,249,5.2,9.4,52,0.00,,,-99.99,Meteorologica,2013-08-26 17:00:00,
2013-08-26 12:05:00,90.7,71.5,30.08,SSW,202,7.6,11.0,53,0.00,,,-99.99,Meteorologica,2013-08-26 17:05:00,
2013-08-26 12:10:00,90.5,70.6,30.08,SSW,208,8.1,12.9,51,0.00,,,-99.99,Meteorologica,2013-08-26 17:10:00,
2013-08-26 12:15:00,90.8,71.4,30.08,SSW,198,3.4,6.6,52,0.00,,,-99.99,Meteorologica,2013-08-26 17:15:00,
2013-08-26 12:20:00,91.3,70.9,30.08,SSE,156,7.2,14.6,51,0.00,,,-99.99,Meteorologica,2013-08-26 17:20:00,
2013-08-26 12:25:00,91.8,71.7,30.08,SSW,204,3.7,8.1,51,0.00,,,-99.99,Meteorologica,2013-08-26 17:25:00,
2013-08-26 12:30:00,91.8,70.6,30.07,South,190,10.3,16.7,49,0.00,,,-99.99,Meteorologica,2013-08-26 17:30:00,
2013-08-26 12:35:00,91.8,70.9,30.07,South,169,6.6,11.7,50,0.00,,,-99.99,Meteorologica,2013-08-26 17:35:00,
2013-08-26 12:40:00,92.1,71.2,30.07,SSE,155,5.4,9.1,50,0.00,,,-99.99,Meteorologica,2013-08-26 17:40:00,
2013-08-26 12:45:00,92.0,69.3,30.07,SW,218,8.9,16.2,47,0.00,,,-99.99,Meteorologica,2013-08-26 17:45:00,
2013-08-26 12:50:00,92.8,71.5,30.06,South,169,4.2,8.3,49,0.00,,,-99.99,Meteorologica,2013-08-26 17:50:00,
2013-08-26 12:55:00,92.9,70.8,30.06,South,191,10.3,14.8,48,0.00,,,-99.99,Meteorologica,2013-08-26 17:55:00,
2013-08-26 13:00:00,93.0,71.1,30.07,SSW,192,3.6,9.9,48,0.00,,,-99.99,Meteorologica,2013-08-26 18:00:00,
2013-08-26 13:05:00,93.1,70.0,30.06,South,190,9.5,15.4,46,0.00,,,-99.99,Meteorologica,2013-08-26 18:05:00,
2013-08-26 13:10:00,93.2,70.8,30.06,South,189,6.9,13.6,48,0.00,,,-99.99,Meteorologica,2013-08-26 18:10:00,
2013-08-26 13:15:00,93.4,70.2,30.06,SW,216,4.6,13.1,46,0.00,,,-99.99,Meteorologica,2013-08-26 18:15:00,
2013-08-26 13:20:00,93.5,70.5,30.06,SSW,208,8.7,13.5,47,0.00,,,-99.99,Meteorologica,2013-08-26 18:20:00,
2013-08-26 13:25:00,93.4,70.4,30.05,NNW,344,3.8,17.0,47,0.00,,,-99.99,Meteorologica,2013-08-26 18:25:00,
2013-08-26 13:30:00,93.8,71.6,30.06,SE,125,5.5,14.0,48,0.00,,,-99.99,Meteorologica,2013-08-26 18:30:00,
2013-08-26 13:35:00,93.7,71.3,30.05,SW,223,7.7,13.8,48,0.00,,,-99.99,Meteorologica,2013-08-26 18:35:00,
2013-08-26 13:40:00,93.4,70.1,30.05,SSW,207,9.3,15.9,46,0.00,,,-99.99,Meteorologica,2013-08-26 18:40:00,
2013-08-26 13:45:00,93.7,70.8,30.05,South,176,7.0,11.3,47,0.00,,,-99.99,Meteorologica,2013-08-26 18:45:00,
2013-08-26 13:50:00,93.9,70.6,30.05,South,179,4.2,12.0,46,0.00,,,-99.99,Meteorologica,2013-08-26 18:50:00,
2013-08-26 13:55:00,94.1,71.7,30.05,SSE,166,8.1,12.6,48,0.00,,,-99.99,Meteorologica,2013-08-26 18:55:00,
2013-08-26 14:00:00,94.3,71.4,30.05,South,177,5.4,10.7,47,0.00,,,-99.99,Meteorologica,2013-08-26 19:00:00,
2013-08-26 14:05:00,94.7,70.0,30.04,SW,224,4.7,9.2,44,0.00,,,-99.99,Meteorologica,2013-08-26 19:05:00,
2013-08-26 14:10:00,94.8,71.6,30.05,West,280,4.6,9.9,47,0.00,,,-99.99,Meteorologica,2013-08-26 19:10:00,
2013-08-26 14:15:00,94.8,72.4,30.05,East,81,5.0,8.7,48,0.00,,,-99.99,Meteorologica,2013-08-26 19:15:00,
2013-08-26 14:20:00,95.1,72.6,30.04,South,176,3.3,7.3,48,0.00,,,-99.99,Meteorologica,2013-08-26 19:20:00,
2013-08-26 14:25:00,95.2,70.8,30.04,SSE,157,8.9,12.0,45,0.00,,,-99.99,Meteorologica,2013-08-26 19:25:00,
2013-08-26 14:30:00,95.0,70.0,30.04,South,174,7.4,12.6,44,0.00,,,-99.99,Meteorologica,2013-08-26 19:30:00,
2013-08-26 14:35:00,95.2,70.5,30.04,NW,326,2.5,7.9,44,0.00,,,-99.99,Meteorologica,2013-08-26 19:35:00,
2013-08-26 14:40:00,95.4,70.5,30.03,NW,310,3.5,10.5,44,0.00,,,-99.99,Meteorologica,2013-08-26 19:40:00,
2013-08-26 14:45:00,95.7,71.6,30.04,South,180,4.1,8.5,45,0.00,,,-99.99,Meteorologica,2013-08-26 19:45:00,
2013-08-26 14:50:00,95.8,71.9,30.03,South,187,3.7,13.5,46,0.00,,,-99.99,Meteorologica,2013-08-26 19:50:00,
2013-08-26 14:55:00,95.2,71.0,30.03,South,183,9.7,13.5,45,0.00,,,-99.99,Meteorologica,2013-08-26 19:55:00,
2013-08-26 15:00:00,95.1,71.5,30.03,South,188,7.3,11.7,46,0.00,,,-99.99,Meteorologica,2013-08-26 20:00:00,
2013-08-26 15:05:00,95.3,71.5,30.03,South,182,5.5,9.5,46,0.00,,,-99.99,Meteorologica,2013-08-26 20:05:00,
2013-08-26 15:10:00,95.4,71.3,30.03,SSW,192,4.2,9.5,45,0.00,,,-99.99,Meteorologica,2013-08-26 20:10:00,
2013-08-26 15:15:00,95.7,70.5,30.03,SW,235,7.2,11.5,44,0.00,,,-99.99,Meteorologica,2013-08-26 20:15:00,
2013-08-26 15:20:00,95.5,70.0,30.03,SSE,148,7.0,11.2,43,0.00,,,-99.99,Meteorologica,2013-08-26 20:20:00,
2013-08-26 15:25:00,95.4,70.2,30.02,SSW,198,6.7,12.1,44,0.00,,,-99.99,Meteorologica,2013-08-26 20:25:00,
2013-08-26 15:30:00,95.5,70.4,30.02,South,183,7.1,14.3,44,0.00,,,-99.99,Meteorologica,2013-08-26 20:30:00,
2013-08-26 15:35:00,95.1,69.9,30.02,South,190,7.7,15.4,44,0.00,,,-99.99,Meteorologica,2013-08-26 20:35:00,
2013-08-26 15:40:00,95.4,70.2,30.02,SW,220,4.5,7.7,44,0.00,,,-99.99,Meteorologica,2013-08-26 20:40:00,
2013-08-26 15:45:00,95.8,70.2,30.02,South,185,7.5,14.4,43,0.00,,,-99.99,Meteorologica,2013-08-26 20:45:00,
2013-08-26 15:50:00,95.9,70.4,30.02,SSW,197,3.6,11.4,43,0.00,,,-99.99,Meteorologica,2013-08-26 20:50:00,
2013-08-26 15:55:00,95.8,70.6,30.02,SW,224,4.2,13.3,44,0.00,,,-99.99,Meteorologica,2013-08-26 20:55:00,
2013-08-26 16:00:00,95.9,70.3,30.01,SSW,193,4.8,11.0,43,0.00,,,-99.99,Meteorologica,2013-08-26 21:00:00,
2013-08-26 16:05:00,95.9,69.4,30.02,SSW,208,7.3,12.0,42,0.00,,,-99.99,Meteorologica,2013-08-26 21:05:00,
2013-08-26 16:10:00,95.9,70.2,30.02,SSE,154,4.7,10.7,43,0.00,,,-99.99,Meteorologica,2013-08-26 21:10:00,
2013-08-26 16:15:00,95.8,69.8,30.02,SW,228,3.2,9.5,43,0.00,,,-99.99,Meteorologica,2013-08-26 21:15:00,
2013-08-26 16:20:00,95.8,70.4,30.01,South,176,5.7,9.2,43,0.00,,,-99.99,Meteorologica,2013-08-26 21:20:00,
2013-08-26 16:25:00,95.8,69.7,30.01,SSW,201,6.3,13.8,42,0.00,,,-99.99,Meteorologica,2013-08-26 21:25:00,
2013-08-26 16:30:00,95.3,70.0,30.01,South,179,3.7,7.2,43,0.00,,,-99.99,Meteorologica,2013-08-26 21:30:00,
2013-08-26 16:35:00,95.4,68.2,30.01,SSW,205,6.3,12.5,41,0.00,,,-99.99,Meteorologica,2013-08-26 21:35:00,
2013-08-26 16:40:00,95.3,69.2,30.01,SW,226,5.6,10.4,42,0.00,,,-99.99,Meteorologica,2013-08-26 21:40:00,
2013-08-26 16:45:00,95.3,69.6,30.01,SSE,150,5.0,11.2,43,0.00,,,-99.99,Meteorologica,2013-08-26 21:45:00,
2013-08-26 16:50:00,95.1,68.6,30.01,South,175,4.3,14.3,42,0.00,,,-99.99,Meteorologica,2013-08-26 21:50:00,
2013-08-26 16:55:00,95.2,68.4,30.01,SSE,160,6.4,11.3,41,0.00,,,-99.99,Meteorologica,2013-08-26 21:55:00,
2013-08-26 17:00:00,95.0,67.4,30.01,SW,232,7.1,13.0,40,0.00,,,-99.99,Meteorologica,2013-08-26 22:00:00,
2013-08-26 17:05:00,95.1,67.9,30.01,South,181,6.4,9.0,41,0.00,,,-99.99,Meteorologica,2013-08-26 22:05:00,
2013-08-26 17:10:00,95.3,69.0,30.00,SSW,212,5.4,9.9,42,0.00,,,-99.99,Meteorologica,2013-08-26 22:10:00,
2013-08-26 17:15:00,95.0,69.2,30.01,SSW,208,7.2,11.8,43,0.00,,,-99.99,Meteorologica,2013-08-26 22:15:00,
2013-08-26 17:20:00,95.0,68.9,30.00,South,187,4.0,10.4,42,0.00,,,-99.99,Meteorologica,2013-08-26 22:20:00,
2013-08-26 17:25:00,94.9,69.5,30.00,South,172,7.5,11.9,43,0.00,,,-99.99,Meteorologica,2013-08-26 22:25:00,
2013-08-26 17:30:00,94.8,69.5,30.00,South,187,5.8,11.2,43,0.00,,,-99.99,Meteorologica,2013-08-26 22:30:00,
2013-08-26 17:35:00,94.5,69.4,30.00,SSW,197,7.2,11.0,44,0.00,,,-99.99,Meteorologica,2013-08-26 22:35:00,
2013-08-26 17:40:00,94.4,69.5,30.00,SW,214,6.8,15.3,44,0.00,,,-99.99,Meteorologica,2013-08-26 22:40:00,
2013-08-26 17:45:00,94.3,69.9,30.01,SSW,206,6.6,8.9,45,0.00,,,-99.99,Meteorologica,2013-08-26 22:45:00,
2013-08-26 17:50:00,94.1,69.5,30.00,SSW,211,4.6,12.4,44,0.00,,,-99.99,Meteorologica,2013-08-26 22:50:00,
2013-08-26 17:55:00,94.0,69.9,30.00,SW,217,6.4,11.6,45,0.00,,,-99.99,Meteorologica,2013-08-26 22:55:00,
2013-08-26 18:00:00,94.0,69.8,30.00,SSW,196,6.7,9.6,45,0.00,,,-99.99,Meteorologica,2013-08-26 23:00:00,
2013-08-26 18:05:00,93.9,69.8,30.00,SW,229,4.5,8.3,45,0.00,,,-99.99,Meteorologica,2013-08-26 23:05:00,
2013-08-26 18:10:00,93.7,69.3,30.00,SSW,207,7.9,11.0,45,0.00,,,-99.99,Meteorologica,2013-08-26 23:10:00,
2013-08-26 18:15:00,93.8,69.6,30.01,SSW,210,5.5,13.2,45,0.00,,,-99.99,Meteorologica,2013-08-26 23:15:00,
2013-08-26 18:20:00,93.3,68.4,30.00,SSW,192,4.7,9.9,44,0.00,,,-99.99,Meteorologica,2013-08-26 23:20:00,
2013-08-26 18:25:00,93.3,68.8,30.00,SW,217,6.4,10.4,44,0.00,,,-99.99,Meteorologica,2013-08-26 23:25:00,
2013-08-26 18:30:00,93.3,69.2,30.00,South,177,0.2,7.1,45,0.00,,,-99.99,Meteorologica,2013-08-26 23:30:00,
2013-08-26 18:35:00,93.0,68.6,30.00,South,182,6.4,9.4,45,0.00,,,-99.99,Meteorologica,2013-08-26 23:35:00,
2013-08-26 18:40:00,92.8,69.0,30.00,SSW,202,5.8,8.3,45,0.00,,,-99.99,Meteorologica,2013-08-26 23:40:00,
2013-08-26 18:45:00,92.7,68.7,30.00,SSW,210,5.3,8.9,45,0.00,,,-99.99,Meteorologica,2013-08-26 23:45:00,
2013-08-26 18:50:00,92.4,69.4,30.00,SE,136,2.4,10.2,47,0.00,,,-99.99,Meteorologica,2013-08-26 23:50:00,
2013-08-26 18:55:00,92.4,70.0,30.00,SSE,167,1.7,4.5,48,0.00,,,-99.99,Meteorologica,2013-08-26 23:55:00,
2013-08-26 19:00:00,92.2,70.5,30.00,SSW,196,2.4,7.3,49,0.00,,,-99.99,Meteorologica,2013-08-27 00:00:00,
2013-08-26 19:05:00,91.9,70.4,30.00,South,175,5.2,7.6,49,0.00,,,-99.99,Meteorologica,2013-08-27 00:05:00,
2013-08-26 19:10:00,91.7,70.3,30.00,SE,135,3.5,7.6,49,0.00,,,-99.99,Meteorologica,2013-08-27 00:10:00,
2013-08-26 19:15:00,91.3,70.1,30.00,SSW,199,5.1,11.6,49,0.00,,,-99.99,Meteorologica,2013-08-27 00:15:00,
2013-08-26 19:20:00,91.1,70.4,30.00,SSW,210,2.2,6.0,50,0.00,,,-99.99,Meteorologica,2013-08-27 00:20:00,
2013-08-26 19:25:00,90.8,70.6,30.00,SSE,166,0.0,0.0,51,0.00,,,-99.99,Meteorologica,2013-08-27 00:25:00,
2013-08-26 19:30:00,90.7,70.9,30.00,SSE,159,3.3,6.1,52,0.00,,,-99.99,Meteorologica,2013-08-27 00:30:00,
2013-08-26 19:35:00,90.3,71.1,30.00,SE,146,0.0,0.0,53,0.00,,,-99.99,Meteorologica,2013-08-27 00:35:00,
2013-08-26 19:40:00,89.9,71.2,30.00,ESE,112,3.4,5.8,53,0.00,,,-99.99,Meteorologica,2013-08-27 00:40:00,
2013-08-26 19:45:00,89.4,71.1,30.00,South,177,3.9,7.9,54,0.00,,,-99.99,Meteorologica,2013-08-27 00:45:00,
2013-08-26 19:50:00,89.0,71.1,30.00,SE,129,1.3,6.4,55,0.00,,,-99.99,Meteorologica,2013-08-27 00:50:00,
2013-08-26 19:55:00,88.6,71.1,30.00,South,191,3.0,6.8,55,0.00,,,-99.99,Meteorologica,2013-08-27 00:55:00,
2013-08-26 20:00:00,88.2,71.1,30.00,South,180,0.0,0.0,56,0.00,,,-99.99,Meteorologica,2013-08-27 01:00:00,
2013-08-26 20:05:00,88.1,71.1,30.01,South,180,0.0,0.0,56,0.00,,,-99.99,Meteorologica,2013-08-27 01:05:00,
2013-08-26 20:10:00,87.6,71.1,30.00,SSW,206,0.0,2.8,57,0.00,,,-99.99,Meteorologica,2013-08-27 01:10:00,
2013-08-26 20:15:00,87.3,71.0,30.00,SW,218,4.0,5.1,58,0.00,,,-99.99,Meteorologica,2013-08-27 01:15:00,
2013-08-26 20:20:00,86.9,71.0,30.00,SSW,210,3.5,7.3,58,0.00,,,-99.99,Meteorologica,2013-08-27 01:20:00,
2013-08-26 20:25:00,86.6,70.9,30.00,South,186,0.6,3.1,59,0.00,,,-99.99,Meteorologica,2013-08-27 01:25:00,
2013-08-26 20:30:00,86.4,71.0,30.00,South,186,0.0,0.0,59,0.00,,,-99.99,Meteorologica,2013-08-27 01:30:00,
2013-08-26 20:35:00,86.1,71.1,30.00,South,186,0.0,0.0,60,0.00,,,-99.99,Meteorologica,2013-08-27 01:35:00,
2013-08-26 20:40:00,85.7,71.1,30.00,South,186,0.0,0.0,61,0.00,,,-99.99,Meteorologica,2013-08-27 01:40:00,
2013-08-26 20:45:00,85.4,71.2,30.00,SSE,160,0.0,0.0,62,0.00,,,-99.99,Meteorologica,2013-08-27 01:45:00,
2013-08-26 20:50:00,85.0,71.2,30.00,SSW,204,4.3,6.9,62,0.00,,,-99.99,Meteorologica,2013-08-27 01:50:00,
2013-08-26 20:55:00,84.7,71.2,30.00,West,271,2.8,4.4,63,0.00,,,-99.99,Meteorologica,2013-08-27 01:55:00,
2013-08-26 21:00:00,84.4,71.2,30.00,WSW,239,0.0,0.0,64,0.00,,,-99.99,Meteorologica,2013-08-27 02:00:00,
2013-08-26 21:05:00,84.1,71.0,30.00,SE,127,0.4,4.7,64,0.00,,,-99.99,Meteorologica,2013-08-27 02:05:00,
2013-08-26 21:10:00,83.9,71.0,30.00,SSW,201,1.1,5.8,64,0.00,,,-99.99,Meteorologica,2013-08-27 02:10:00,
2013-08-26 21:15:00,83.9,71.1,30.00,SW,223,0.7,3.3,64,0.00,,,-99.99,Meteorologica,2013-08-27 02:15:00,
2013-08-26 21:20:00,83.6,71.0,30.00,SE,134,0.0,0.0,65,0.00,,,-99.99,Meteorologica,2013-08-27 02:20:00,
2013-08-26 21:25:00,83.5,71.2,30.00,SE,134,0.0,0.0,65,0.00,,,-99.99,Meteorologica,2013-08-27 02:25:00,
2013-08-26 21:30:00,83.4,71.2,30.00,South,176,0.6,5.3,66,0.00,,,-99.99,Meteorologica,2013-08-27 02:30:00,
2013-08-26 21:35:00,83.1,71.0,30.00,SSW,199,0.0,0.0,66,0.00,,,-99.99,Meteorologica,2013-08-27 02:35:00,
2013-08-26 21:40:00,82.8,70.9,30.01,SSW,192,4.7,7.4,66,0.00,,,-99.99,Meteorologica,2013-08-27 02:40:00,
2013-08-26 21:45:00,82.7,71.0,30.00,SSW,207,4.5,7.0,67,0.00,,,-99.99,Meteorologica,2013-08-27 02:45:00,
2013-08-26 21:50:00,82.4,70.7,30.00,South,170,2.3,9.5,67,0.00,,,-99.99,Meteorologica,2013-08-27 02:50:00,
2013-08-26 21:55:00,82.4,70.9,30.00,South,183,4.0,9.1,67,0.00,,,-99.99,Meteorologica,2013-08-27 02:55:00,
2013-08-26 22:00:00,82.3,70.8,30.00,SSE,149,2.3,8.7,67,0.00,,,-99.99,Meteorologica,2013-08-27 03:00:00,
2013-08-26 22:05:00,82.3,70.8,30.00,SSE,147,4.4,8.1,67,0.00,,,-99.99,Meteorologica,2013-08-27 03:05:00,
2013-08-26 22:10:00,82.2,70.7,30.00,SSW,194,2.0,6.3,67,0.00,,,-99.99,Meteorologica,2013-08-27 03:10:00,
2013-08-26 22:15:00,81.9,70.5,30.00,South,174,4.4,6.0,67,0.00,,,-99.99,Meteorologica,2013-08-27 03:15:00,
2013-08-26 22:20:00,82.0,70.6,30.00,South,180,3.9,6.1,67,0.00,,,-99.99,Meteorologica,2013-08-27 03:20:00,
2013-08-26 22:25:00,81.9,70.5,29.99,SSE,155,0.6,7.9,68,0.00,,,-99.99,Meteorologica,2013-08-27 03:25:00,
2013-08-26 22:30:00,81.7,70.4,29.99,SSW,203,2.3,5.2,68,0.00,,,-99.99,Meteorologica,2013-08-27 03:30:00,
2013-08-26 22:35:00,81.4,70.3,30.00,SSE,160,0.2,1.8,68,0.00,,,-99.99,Meteorologica,2013-08-27 03:35:00,
2013-08-26 22:40:00,81.3,70.4,30.00,SSW,202,1.4,6.4,68,0.00,,,-99.99,Meteorologica,2013-08-27 03:40:00,
2013-08-26 22:45:00,81.3,70.4,30.00,SSE,162,3.0,6.2,69,0.00,,,-99.99,Meteorologica,2013-08-27 03:45:00,
2013-08-26 22:50:00,81.2,70.4,30.00,South,186,4.2,6.4,69,0.00,,,-99.99,Meteorologica,2013-08-27 03:50:00,
2013-08-26 22:55:00,81.2,70.4,30.00,South,190,4.3,7.5,69,0.00,,,-99.99,Meteorologica,2013-08-27 03:55:00,
2013-08-26 23:00:00,81.2,70.4,30.00,South,183,2.4,5.8,69,0.00,,,-99.99,Meteorologica,2013-08-27 04:00:00,
2013-08-26 23:01:00,81.0,70.2,30.00,South,172,2.3,5.8,69,0.00,,,-99.99,Meteorologica,2013-08-27 04:01:00,
2013-08-26 23:02:00,81.1,70.4,30.00,SSW,194,3.8,8.9,69,0.00,,,-99.99,Meteorologica,2013-08-27 04:02:00,
2013-08-26 23:03:00,81.0,70.3,30.00,SSE,164,3.5,8.9,69,0.00,,,-99.99,Meteorologica,2013-08-27 04:03:00,
2013-08-26 23:08:00,80.9,70.2,30.00,SSE,158,4.8,7.6,69,0.00,,,-99.99,Meteorologica,2013-08-27 04:08:00,
2013-08-26 23:13:00,81.0,70.3,30.00,South,191,4.4,8.0,69,0.00,,,-99.99,Meteorologica,2013-08-27 04:13:00,
2013-08-26 23:18:00,81.1,70.2,30.00,SSW,207,6.6,11.6,69,0.00,,,-99.99,Meteorologica,2013-08-27 04:18:00,
2013-08-26 23:23:00,81.2,70.3,30.00,South,175,4.5,10.0,69,0.00,,,-99.99,Meteorologica,2013-08-27 04:23:00,
2013-08-26 23:28:00,81.4,70.4,30.00,South,189,6.4,9.1,68,0.00,,,-99.99,Meteorologica,2013-08-27 04:28:00,
2013-08-26 23:33:00,81.3,70.4,30.00,South,179,5.2,14.3,68,0.00,,,-99.99,Meteorologica,2013-08-27 04:33:00,
2013-08-26 23:38:00,81.2,70.3,30.00,South,183,5.4,11.0,69,0.00,,,-99.99,Meteorologica,2013-08-27 04:38:00,
2013-08-26 23:43:00,81.0,70.3,30.00,SW,221,5.7,11.2,69,0.00,,,-99.99,Meteorologica,2013-08-27 04:43:00,
2013-08-26 23:48:00,81.0,70.4,30.00,SSW,213,7.0,11.0,69,0.00,,,-99.99,Meteorologica,2013-08-27 04:48:00,
2013-08-26 23:53:00,80.8,70.2,30.00,SSW,210,7.8,13.1,69,0.00,,,-99.99,Meteorologica,2013-08-27 04:53:00,
2013-08-26 23:58:00,80.6,70.1,30.00,SW,214,5.7,11.7,69,0.00,,,-99.99,Meteorologica,2013-08-27 04:58:00,